User: anonymous   Login
Location: Durham
(35.9940°N, 78.8990°W)
Time: 21:04:35
(UTC-05:00)
Language:

Iridium 63 - Orbit

View from above orbital plane
View from above orbital plane
View from above satellite
View from above satellite

Ground track
Ground track

The orbit data is extracted from the following two-line orbital elements,

1 25286U 98021B   14326.34876682  .00000556  00000-0  19113-3 0   651
2 25286 086.4007 256.1916 0001975 100.9394 049.7652 14.34307317870593
Epoch (UTC): 22 November 2014 08:22:13
Eccentricity: 0.0001975
inclination: 86.4007°
perigee height: 776 km
apogee height: 779 km
right ascension of ascending node: 256.1916°
argument of perigee: 100.9394°
revolutions per day: 14.34307317
mean anomaly at epoch: 49.7652°
orbit number at epoch: 87059

The dashed part of the orbit path shows where the satellite is in the earth's shadow,  

DLR